• In Deutschland
  • Länderverzeichnis
  • Für 7 Tage
  • Wassertemperatur
  • Satellitenkarten
  • Wetterkarte
  • Widgets
  • user-avatar
    Anmelden

    Stündliche Wetter Bad Füssing

    Heute, 20 Oktober, Samstag

    Zeit Temperatur Niederschläge Wind Luftdruck Luftfeuchtigkeit
    00:00 +9°C° 0 mm 0 m/S 739 mmHg 93%
    01:00 +9°C° 0 mm 0 m/S 739 mmHg 94%
    02:00 +9°C° 0 mm 0 m/S 739 mmHg 94%
    03:00 +9°C° 0 mm 0 m/S 739 mmHg 94%
    04:00 +9°C° 0 mm 0 m/S 739 mmHg 94%
    05:00 +9°C° 0 mm 0 m/S 739 mmHg 95%
    06:00 +8°C° 0 mm 0 m/S 740 mmHg 95%
    07:00 +10°C° 0 mm 1 m/S 741 mmHg 94%
    08:00 +11°C° 0 mm 1 m/S 741 mmHg 90%
    09:00 +12°C° 0 mm 1 m/S 741 mmHg 86%
    10:00 +14°C° 0 mm 1 m/S 741 mmHg 81%
    11:00 +15°C° 0 mm 1 m/S 741 mmHg 79%
    12:00 +15°C° 0 mm 2 m/S 740 mmHg 76%
    13:00 +16°C° 0 mm 2 m/S 741 mmHg 75%
    14:00 +15°C° 0 mm 2 m/S 741 mmHg 76%
    15:00 +15°C° 0 mm 2 m/S 741 mmHg 76%
    16:00 +15°C° 0 mm 2 m/S 741 mmHg 77%
    17:00 +14°C° 0 mm 2 m/S 741 mmHg 80%
    18:00 +13°C° 0 mm 2 m/S 741 mmHg 83%
    19:00 +12°C° 0 mm 1 m/S 741 mmHg 86%
    20:00 +11°C° 0 mm 1 m/S 741 mmHg 87%
    21:00 +11°C° 0 mm 1 m/S 741 mmHg 88%
    22:00 +10°C° 0 mm 1 m/S 741 mmHg 89%
    23:00 +10°C° 0 mm 1 m/S 741 mmHg 89%

    Morgen, 21 Oktober, Sonntag

    Zeit Temperatur Niederschläge Wind Luftdruck Luftfeuchtigkeit
    00:00 +10°C° 0 mm 1 m/S 742 mmHg 89%
    01:00 +10°C° 0 mm 1 m/S 742 mmHg 89%
    02:00 +10°C° 0 mm 1 m/S 741 mmHg 90%
    03:00 +9°C° 0 mm 1 m/S 741 mmHg 90%
    04:00 +9°C° 0 mm 1 m/S 741 mmHg 91%
    05:00 +9°C° 0 mm 1 m/S 741 mmHg 91%
    06:00 +8°C° 0 mm 1 m/S 741 mmHg 92%
    07:00 +7°C° 0 mm 1 m/S 741 mmHg 92%
    08:00 +9°C° 0 mm 1 m/S 741 mmHg 85%
    09:00 +11°C° 0 mm 1 m/S 741 mmHg 77%
    10:00 +12°C° 0 mm 1 m/S 741 mmHg 69%
    11:00 +13°C° 0 mm 1 m/S 741 mmHg 64%
    12:00 +13°C° 0 mm 1 m/S 741 mmHg 59%
    13:00 +14°C° 0 mm 1 m/S 741 mmHg 55%
    14:00 +14°C° 0 mm 1 m/S 740 mmHg 58%
    15:00 +13°C° 0 mm 1 m/S 740 mmHg 61%
    16:00 +13°C° 0 mm 1 m/S 740 mmHg 64%
    17:00 +11°C° 0 mm 1 m/S 740 mmHg 69%
    18:00 +10°C° 0 mm 1 m/S 741 mmHg 73%
    19:00 +8°C° 0 mm 1 m/S 741 mmHg 78%
    20:00 +8°C° 0 mm 1 m/S 741 mmHg 81%
    21:00 +7°C° 0 mm 1 m/S 741 mmHg 83%
    22:00 +7°C° 0 mm 1 m/S 741 mmHg 85%
    23:00 +7°C° 0 mm 1 m/S 741 mmHg 86%

    übermorgen, 22 Oktober, Montag

    Zeit Temperatur Niederschläge Wind Luftdruck Luftfeuchtigkeit
    00:00 +6°C° 0 mm 1 m/S 741 mmHg 88%
    01:00 +6°C° 0 mm 1 m/S 741 mmHg 89%
    02:00 +6°C° 0 mm 1 m/S 741 mmHg 90%
    03:00 +6°C° 0 mm 1 m/S 741 mmHg 90%
    04:00 +5°C° 0 mm 1 m/S 740 mmHg 91%
    05:00 +5°C° 0 mm 1 m/S 740 mmHg 91%
    06:00 +5°C° 0 mm 1 m/S 740 mmHg 91%
    07:00 +5°C° 0 mm 1 m/S 740 mmHg 91%
    08:00 +7°C° 0 mm 1 m/S 740 mmHg 83%
    09:00 +10°C° 0 mm 1 m/S 740 mmHg 74%
    10:00 +12°C° 0 mm 1 m/S 740 mmHg 66%
    11:00 +13°C° 0 mm 1 m/S 740 mmHg 63%
    12:00 +14°C° 0 mm 1 m/S 740 mmHg 60%
    13:00 +15°C° 0 mm 1 m/S 739 mmHg 58%
    14:00 +15°C° 0 mm 1 m/S 739 mmHg 61%
    15:00 +14°C° 0 mm 1 m/S 739 mmHg 65%
    16:00 +14°C° 0 mm 1 m/S 739 mmHg 69%
    17:00 +12°C° 0 mm 1 m/S 740 mmHg 74%
    18:00 +10°C° 0 mm 1 m/S 740 mmHg 80%
    19:00 +9°C° 0 mm 1 m/S 741 mmHg 85%
    20:00 +8°C° 0 mm 1 m/S 741 mmHg 86%
    21:00 +8°C° 0 mm 1 m/S 742 mmHg 87%
    22:00 +8°C° 0 mm 1 m/S 742 mmHg 88%
    23:00 +8°C° 0 mm 1 m/S 742 mmHg 88%

    23 Oktober, Dienstag

    Zeit Temperatur Niederschläge Wind Luftdruck Luftfeuchtigkeit
    00:00 +8°C° 0 mm 1 m/S 742 mmHg 89%
    01:00 +8°C° 0 mm 1 m/S 742 mmHg 90%
    02:00 +8°C° 0 mm 1 m/S 742 mmHg 90%
    03:00 +8°C° 0 mm 1 m/S 742 mmHg 91%
    04:00 +9°C° 0 mm 1 m/S 742 mmHg 91%
    05:00 +9°C° 0 mm 1 m/S 742 mmHg 91%
    06:00 +9°C° 0 mm 1 m/S 742 mmHg 91%
    07:00 +8°C° 0 mm 2 m/S 742 mmHg 91%
    08:00 +8°C° 0 mm 2 m/S 742 mmHg 87%
    09:00 +9°C° 0 mm 3 m/S 742 mmHg 84%
    10:00 +10°C° 0 mm 3 m/S 741 mmHg 80%
    11:00 +10°C° 0 mm 4 m/S 741 mmHg 76%
    12:00 +11°C° 0 mm 4 m/S 740 mmHg 72%
    13:00 +12°C° 0 mm 4 m/S 739 mmHg 68%
    14:00 +11°C° 0 mm 4 m/S 739 mmHg 69%
    15:00 +11°C° 0 mm 4 m/S 738 mmHg 71%
    16:00 +11°C° 0 mm 4 m/S 738 mmHg 72%
    17:00 +10°C° 0 mm 4 m/S 738 mmHg 74%
    18:00 +9°C° 0 mm 5 m/S 738 mmHg 76%
    19:00 +9°C° 0 mm 5 m/S 738 mmHg 78%
    20:00 +8°C° 0.2 mm 5 m/S 738 mmHg 78%
    21:00 +8°C° 0.2 mm 6 m/S 738 mmHg 78%
    22:00 +8°C° 0.2 mm 6 m/S 738 mmHg 78%
    23:00 +8°C° 0.3 mm 6 m/S 737 mmHg 80%

    24 Oktober, Mittwoch

    Zeit Temperatur Niederschläge Wind Luftdruck Luftfeuchtigkeit
    00:00 +8°C° 0.3 mm 6 m/S 737 mmHg 83%
    01:00 +8°C° 0.3 mm 7 m/S 736 mmHg 85%
    02:00 +8°C° 0.4 mm 7 m/S 736 mmHg 86%
    03:00 +8°C° 0.4 mm 7 m/S 736 mmHg 88%
    04:00 +8°C° 0.4 mm 7 m/S 735 mmHg 89%
    05:00 +8°C° 0.6 mm 7 m/S 735 mmHg 89%
    06:00 +8°C° 0.6 mm 7 m/S 735 mmHg 90%
    07:00 +7°C° 0.6 mm 8 m/S 734 mmHg 91%
    08:00 +9°C° 0.7 mm 8 m/S 734 mmHg 91%
    09:00 +9°C° 0.7 mm 8 m/S 734 mmHg 91%
    10:00 +9°C° 0.7 mm 8 m/S 734 mmHg 91%
    11:00 +10°C° 0.7 mm 8 m/S 734 mmHg 91%
    12:00 +10°C° 0.7 mm 8 m/S 734 mmHg 91%
    13:00 +10°C° 0.7 mm 8 m/S 734 mmHg 91%
    14:00 +10°C° 0.7 mm 8 m/S 734 mmHg 91%
    15:00 +10°C° 0.7 mm 8 m/S 734 mmHg 91%
    16:00 +10°C° 0.7 mm 7 m/S 734 mmHg 91%
    17:00 +10°C° 0.3 mm 7 m/S 735 mmHg 91%
    18:00 +10°C° 0.3 mm 7 m/S 735 mmHg 91%
    19:00 +10°C° 0.3 mm 6 m/S 736 mmHg 90%
    20:00 +10°C° 0.4 mm 6 m/S 736 mmHg 91%
    21:00 +10°C° 0.4 mm 5 m/S 737 mmHg 91%
    22:00 +10°C° 0.4 mm 4 m/S 737 mmHg 92%
    23:00 +10°C° 0.1 mm 4 m/S 738 mmHg 93%

    25 Oktober, Donnerstag

    Zeit Temperatur Niederschläge Wind Luftdruck Luftfeuchtigkeit
    00:00 +8°C° 0.1 mm 4 m/S 738 mmHg 94%
    01:00 +8°C° 0.1 mm 4 m/S 738 mmHg 95%
    02:00 +9°C° 0.1 mm 3 m/S 738 mmHg 95%
    03:00 +9°C° 0.1 mm 3 m/S 738 mmHg 96%
    04:00 +9°C° 0.1 mm 3 m/S 738 mmHg 96%
    05:00 +10°C° 0.1 mm 3 m/S 738 mmHg 96%
    06:00 +10°C° 0.1 mm 3 m/S 738 mmHg 96%
    07:00 +10°C° 0.1 mm 3 m/S 738 mmHg 96%
    08:00 +11°C° 0 mm 3 m/S 737 mmHg 93%
    09:00 +11°C° 0 mm 4 m/S 737 mmHg 91%
    10:00 +12°C° 0 mm 4 m/S 737 mmHg 88%
    11:00 +12°C° 0.1 mm 4 m/S 737 mmHg 87%
    12:00 +13°C° 0.1 mm 4 m/S 736 mmHg 85%
    13:00 +13°C° 0.1 mm 4 m/S 736 mmHg 84%
    14:00 +13°C° 0.1 mm 4 m/S 735 mmHg 85%
    15:00 +13°C° 0.1 mm 3 m/S 735 mmHg 85%
    16:00 +13°C° 0.1 mm 3 m/S 735 mmHg 86%
    17:00 +12°C° 0.1 mm 3 m/S 735 mmHg 88%
    18:00 +12°C° 0.1 mm 3 m/S 735 mmHg 89%
    19:00 +11°C° 0.1 mm 3 m/S 735 mmHg 91%
    20:00 +11°C° 0.1 mm 3 m/S 735 mmHg 92%
    21:00 +11°C° 0.1 mm 3 m/S 735 mmHg 92%
    22:00 +11°C° 0.1 mm 3 m/S 735 mmHg 93%
    23:00 +10°C° 0 mm 3 m/S 734 mmHg 93%
    Mehr zeigen